{"data":{"norad_id":57892,"intl_designator":"2023-146B","name":"STARLINK-30470","alt_names":[],"object_type":"PAYLOAD","status":"ACTIVE","operator":null,"country":"US","launch_date":"2023-09-20","launch_site_code":"AFETR","launch_vehicle":null,"mission":null,"orbit_class":"UNKNOWN","rcs_meters":null,"size_class":null,"mass_kg":null,"dimensions":null,"purposes":["comms"],"wikipedia_slug":null,"has_3d_model":false,"image_url":null,"decayed_at":null,"tle_current":{"epoch":"2026-05-24T22:58:11.868384Z","epoch_age_seconds":81915,"freshness":"FRESH","line1":"1 57892U 23146B   26144.95708181  .00000871  00000+0  41181-4 0  9997","line2":"2 57892  42.9995 243.2073 0001154 278.7652  81.3069 15.27577924148728","mean_motion":15.27577924,"eccentricity":0.0001154,"inclination_deg":42.9995,"raan_deg":243.2073,"arg_perigee_deg":278.7652,"mean_anomaly_deg":81.3069,"bstar":4.1181e-5,"rev_number":14872,"period_min":94.266876823496,"perigee_km":482.26353074469,"apogee_km":483.84709393037,"semimajor_km":6861.1923123375,"source":"CELESTRAK","updated_at":"2026-05-25T13:38:18.451348Z"}}}